• în România
  • Lista ţărilor
  • Pe 7 zile
  • Temperatura apei
  • Hartă satelitară
  • Meteo pe hartă
  • Widget-uri
  • user-avatar
    Intrare

    Meteo pe oră la Natitingou

    Astăzi, 25 Februarie, Duminică

    Timp Temperatura Precipitaţii Vânt Presiune Umiditate
    00:00 +29°C° 0 mm 1 m/s 717 mmHg 58%
    01:00 +28°C° 0 mm 1 m/s 717 mmHg 59%
    02:00 +28°C° 0 mm 1 m/s 717 mmHg 60%
    03:00 +28°C° 0 mm 1 m/s 717 mmHg 61%
    04:00 +28°C° 0 mm 1 m/s 717 mmHg 62%
    05:00 +27°C° 0 mm 1 m/s 717 mmHg 63%
    06:00 +27°C° 0 mm 1 m/s 717 mmHg 64%
    07:00 +29°C° 0 mm 1 m/s 717 mmHg 58%
    08:00 +31°C° 0 mm 1 m/s 718 mmHg 51%
    09:00 +33°C° 0 mm 1 m/s 718 mmHg 44%
    10:00 +36°C° 0 mm 2 m/s 718 mmHg 38%
    11:00 +37°C° 0 mm 2 m/s 718 mmHg 33%
    12:00 +39°C° 0 mm 2 m/s 718 mmHg 27%
    13:00 +39°C° 0 mm 1 m/s 717 mmHg 28%
    14:00 +37°C° 0 mm 1 m/s 716 mmHg 29%
    15:00 +36°C° 0 mm 1 m/s 715 mmHg 30%
    16:00 +36°C° 0 mm 1 m/s 715 mmHg 31%
    17:00 +35°C° 0 mm 1 m/s 715 mmHg 32%
    18:00 +35°C° 0 mm 1 m/s 715 mmHg 33%
    19:00 +34°C° 0,2 mm 1 m/s 716 mmHg 35%
    20:00 +33°C° 0,2 mm 1 m/s 716 mmHg 38%
    21:00 +32°C° 0,2 mm 1 m/s 716 mmHg 40%
    22:00 +32°C° 0,1 mm 1 m/s 716 mmHg 42%
    23:00 +29°C° 0,1 mm 0 m/s 716 mmHg 44%

    Mâine, 26 Februarie, Luni

    Timp Temperatura Precipitaţii Vânt Presiune Umiditate
    00:00 +29°C° 0,1 mm 0 m/s 716 mmHg 45%
    01:00 +30°C° 0,4 mm 1 m/s 716 mmHg 48%
    02:00 +30°C° 0,4 mm 2 m/s 716 mmHg 50%
    03:00 +29°C° 0,4 mm 3 m/s 715 mmHg 53%
    04:00 +29°C° 0,4 mm 2 m/s 715 mmHg 55%
    05:00 +28°C° 0,4 mm 2 m/s 716 mmHg 57%
    06:00 +28°C° 0,4 mm 1 m/s 716 mmHg 59%
    07:00 +29°C° 0,5 mm 1 m/s 717 mmHg 56%
    08:00 +30°C° 0,5 mm 2 m/s 717 mmHg 53%
    09:00 +31°C° 0,5 mm 2 m/s 718 mmHg 49%
    10:00 +34°C° 0 mm 2 m/s 718 mmHg 46%
    11:00 +35°C° 0 mm 2 m/s 718 mmHg 42%
    12:00 +37°C° 0 mm 2 m/s 718 mmHg 38%
    13:00 +37°C° 0 mm 2 m/s 717 mmHg 36%
    14:00 +37°C° 0 mm 2 m/s 716 mmHg 35%
    15:00 +37°C° 0 mm 2 m/s 716 mmHg 34%
    16:00 +36°C° 0 mm 2 m/s 716 mmHg 36%
    17:00 +36°C° 0 mm 2 m/s 716 mmHg 37%
    18:00 +35°C° 0 mm 2 m/s 716 mmHg 39%
    19:00 +33°C° 0 mm 1 m/s 716 mmHg 40%
    20:00 +33°C° 0 mm 1 m/s 716 mmHg 42%
    21:00 +32°C° 0 mm 1 m/s 717 mmHg 44%
    22:00 +32°C° 0 mm 1 m/s 717 mmHg 45%
    23:00 +31°C° 0 mm 1 m/s 716 mmHg 46%

    Poimâine, 27 Februarie, Marţi

    Timp Temperatura Precipitaţii Vânt Presiune Umiditate
    00:00 +31°C° 0 mm 1 m/s 716 mmHg 47%
    01:00 +30°C° 0 mm 1 m/s 716 mmHg 49%
    02:00 +30°C° 0 mm 1 m/s 715 mmHg 51%
    03:00 +29°C° 0 mm 1 m/s 715 mmHg 53%
    04:00 +29°C° 0 mm 1 m/s 715 mmHg 55%
    05:00 +28°C° 0 mm 1 m/s 716 mmHg 58%
    06:00 +28°C° 0 mm 1 m/s 716 mmHg 60%
    07:00 +29°C° 0 mm 1 m/s 717 mmHg 56%
    08:00 +30°C° 0 mm 2 m/s 718 mmHg 52%
    09:00 +32°C° 0 mm 2 m/s 718 mmHg 49%
    10:00 +34°C° 0 mm 1 m/s 718 mmHg 40%
    11:00 +37°C° 0 mm 1 m/s 718 mmHg 32%
    12:00 +40°C° 0 mm 1 m/s 718 mmHg 24%
    13:00 +40°C° 0 mm 1 m/s 717 mmHg 22%
    14:00 +40°C° 0 mm 1 m/s 716 mmHg 20%
    15:00 +40°C° 0 mm 2 m/s 715 mmHg 19%
    16:00 +39°C° 0 mm 1 m/s 715 mmHg 19%
    17:00 +37°C° 0 mm 1 m/s 715 mmHg 20%
    18:00 +36°C° 0 mm 1 m/s 715 mmHg 21%
    19:00 +35°C° 0 mm 1 m/s 716 mmHg 22%
    20:00 +34°C° 0 mm 1 m/s 716 mmHg 24%
    21:00 +33°C° 0 mm 1 m/s 717 mmHg 26%
    22:00 +33°C° 0 mm 1 m/s 717 mmHg 31%
    23:00 +32°C° 0 mm 1 m/s 717 mmHg 36%

    28 Februarie, Miercuri

    Timp Temperatura Precipitaţii Vânt Presiune Umiditate
    00:00 +31°C° 0 mm 2 m/s 717 mmHg 41%
    01:00 +31°C° 0 mm 2 m/s 716 mmHg 46%
    02:00 +30°C° 0 mm 2 m/s 716 mmHg 51%
    03:00 +29°C° 0 mm 2 m/s 715 mmHg 56%
    04:00 +29°C° 0 mm 2 m/s 716 mmHg 58%
    05:00 +29°C° 0 mm 2 m/s 716 mmHg 60%
    06:00 +29°C° 0 mm 2 m/s 716 mmHg 62%
    07:00 +30°C° 0 mm 2 m/s 717 mmHg 59%
    08:00 +30°C° 0 mm 2 m/s 718 mmHg 57%
    09:00 +31°C° 0 mm 2 m/s 719 mmHg 54%
    10:00 +35°C° 0 mm 2 m/s 718 mmHg 45%
    11:00 +37°C° 0 mm 2 m/s 718 mmHg 37%
    12:00 +39°C° 0 mm 2 m/s 718 mmHg 28%
    13:00 +39°C° 0 mm 2 m/s 717 mmHg 25%
    14:00 +40°C° 0 mm 2 m/s 716 mmHg 23%
    15:00 +40°C° 0 mm 3 m/s 716 mmHg 20%
    16:00 +39°C° 0 mm 2 m/s 716 mmHg 20%
    17:00 +38°C° 0 mm 2 m/s 716 mmHg 19%
    18:00 +36°C° 0 mm 1 m/s 716 mmHg 19%
    19:00 +35°C° 0 mm 1 m/s 716 mmHg 20%
    20:00 +34°C° 0 mm 1 m/s 717 mmHg 21%
    21:00 +33°C° 0 mm 1 m/s 717 mmHg 22%
    22:00 +33°C° 0 mm 1 m/s 717 mmHg 24%
    23:00 +32°C° 0 mm 1 m/s 717 mmHg 26%

    1 Martie, Joi

    Timp Temperatura Precipitaţii Vânt Presiune Umiditate
    00:00 +31°C° 0 mm 2 m/s 717 mmHg 28%
    01:00 +31°C° 0 mm 2 m/s 716 mmHg 34%
    02:00 +30°C° 0 mm 2 m/s 716 mmHg 40%
    03:00 +29°C° 0 mm 2 m/s 716 mmHg 46%
    04:00 +29°C° 0 mm 2 m/s 716 mmHg 51%
    05:00 +29°C° 0 mm 2 m/s 716 mmHg 57%
    06:00 +28°C° 0 mm 2 m/s 717 mmHg 62%
    07:00 +30°C° 0 mm 1 m/s 717 mmHg 58%
    08:00 +31°C° 0 mm 1 m/s 718 mmHg 54%
    09:00 +33°C° 0 mm 1 m/s 719 mmHg 50%
    10:00 +36°C° 0 mm 2 m/s 718 mmHg 41%
    11:00 +38°C° 0 mm 2 m/s 718 mmHg 32%
    12:00 +39°C° 0 mm 2 m/s 718 mmHg 24%
    13:00 +40°C° 0 mm 3 m/s 717 mmHg 21%
    14:00 +40°C° 0 mm 3 m/s 716 mmHg 17%
    15:00 +42°C° 0 mm 4 m/s 715 mmHg 14%
    16:00 +40°C° 0 mm 3 m/s 715 mmHg 13%
    17:00 +38°C° 0 mm 2 m/s 715 mmHg 12%
    18:00 +37°C° 0 mm 2 m/s 715 mmHg 12%
    19:00 +35°C° 0 mm 1 m/s 716 mmHg 12%
    20:00 +34°C° 0 mm 1 m/s 716 mmHg 12%
    21:00 +33°C° 0 mm 1 m/s 717 mmHg 13%
    22:00 +32°C° 0 mm 1 m/s 717 mmHg 16%
    23:00 +31°C° 0 mm 1 m/s 717 mmHg 20%

    2 Martie, Vineri

    Timp Temperatura Precipitaţii Vânt Presiune Umiditate
    00:00 +30°C° 0 mm 1 m/s 717 mmHg 24%
    01:00 +30°C° 0 mm 2 m/s 716 mmHg 32%
    02:00 +29°C° 0 mm 2 m/s 716 mmHg 41%
    03:00 +28°C° 0 mm 2 m/s 716 mmHg 49%
    04:00 +28°C° 0 mm 2 m/s 716 mmHg 56%
    05:00 +27°C° 0 mm 2 m/s 716 mmHg 62%
    06:00 +27°C° 0 mm 2 m/s 716 mmHg 69%
    07:00 +28°C° 0 mm 2 m/s 717 mmHg 63%
    08:00 +30°C° 0 mm 2 m/s 718 mmHg 58%
    09:00 +32°C° 0 mm 2 m/s 718 mmHg 53%
    10:00 +35°C° 0 mm 2 m/s 718 mmHg 42%
    11:00 +37°C° 0 mm 1 m/s 718 mmHg 32%
    12:00 +41°C° 0 mm 1 m/s 718 mmHg 21%
    13:00 +41°C° 0 mm 2 m/s 717 mmHg 19%
    14:00 +40°C° 0 mm 2 m/s 716 mmHg 17%
    15:00 +40°C° 0 mm 3 m/s 715 mmHg 15%
    16:00 +39°C° 0 mm 2 m/s 715 mmHg 16%
    17:00 +38°C° 0 mm 2 m/s 715 mmHg 16%
    18:00 +36°C° 0 mm 1 m/s 715 mmHg 16%
    19:00 +35°C° 0 mm 1 m/s 716 mmHg 16%
    20:00 +34°C° 0 mm 1 m/s 716 mmHg 17%
    21:00 +33°C° 0 mm 1 m/s 716 mmHg 17%
    22:00 +32°C° 0 mm 1 m/s 716 mmHg 18%
    23:00 +31°C° 0 mm 1 m/s 716 mmHg 19%
    Arată mai mult